[[{"header":{"parameterUnit":"m.s-1","parameterCategory":1,"la1":30.2991,"la2":30.254,"lo1":-89.0895,"lo2":-89.0444,"dy":0.0017,"dx":0.0017,"nx":28,"ny":28,"refTime":"2024-11-25T09:00:00:Z","depth":0,"parameterNumber":2,"parameterNumberName":"U-component_of_WINDS"},"data":[0,0,0,0,0,0,0,0,0,0,0,0,0,0,0,0,0,0,0,0,0,0,0,0,0,0,0,0,0,0,0,0,0,0,0,0,0,0,0,0,0,0,0,0,0,0,0,0,0,0,0,0,0,0,0,0,0,0,2.2527,2.2528,0,2.2605,2.2606,2.2606,2.2577,2.2575,2.2573,2.2571,2.2656,2.266,2.2664,0,0,0,0,0,0,0,0,0,0,0,0,0,2.2358,2.2362,2.2527,2.2528,2.2529,2.2605,2.2606,2.2607,2.2577,2.2575,2.2573,2.257,2.2655,2.266,2.2664,0,0,0,0,0,0,0,0,0,0,0,0,0,2.2434,2.2363,2.2527,2.2523,2.2523,2.2604,2.2606,2.2607,2.2577,2.2575,2.2572,2.2569,2.2653,2.2659,2.2665,2.2756,0,0,2.2683,2.2686,0,0,0,0,0,0,0,0,2.2429,2.244,2.2523,2.2523,2.2524,2.2578,2.2577,2.2657,2.2578,2.2557,2.2571,2.2568,2.2633,2.264,2.2661,2.276,2.2763,2.2683,2.2687,2.269,2.2691,0,0,0,0,0,0,0,2.2424,2.2436,2.2558,2.2524,2.2525,2.2519,2.2527,2.2592,2.2609,2.2559,2.2557,2.2566,2.2633,2.2655,2.2663,2.2765,2.2683,2.2689,2.2692,2.2695,2.2944,2.2947,0,0,0,0,0,0,2.2418,2.2432,2.2555,2.256,2.2469,2.2525,2.2533,2.2564,2.2608,2.2613,2.2568,2.2564,2.2646,2.2656,2.2666,2.2776,2.269,2.2695,2.2699,2.2941,2.2944,2.2948,0,0,0,0,0,0,2.2414,2.2429,2.2552,2.2496,2.2511,2.253,2.2565,2.2566,2.2589,2.2616,2.2619,2.2588,2.2645,2.2657,2.2734,2.2778,2.2698,2.2703,2.2937,2.2942,2.2946,2.2996,0,0,0,0,0,0,2.241,2.2428,2.2461,2.2496,2.2514,2.2617,2.2567,2.257,2.2599,2.2594,2.2635,2.2639,2.2644,2.2725,2.2739,2.2785,2.2708,2.2933,2.2939,2.2945,2.299,2.3002,2.3011,0,0,0,0,0,2.2404,2.2473,2.2463,2.2478,2.2555,2.262,2.263,2.2632,2.2602,2.2637,2.2654,2.2638,2.2771,2.2733,2.2749,2.2797,2.293,2.2938,2.2944,2.2986,2.2999,2.3011,0,0,0,0,0,0,2.2444,2.2477,2.2467,2.2549,2.2582,2.2614,2.2658,2.2646,2.2689,2.2683,2.2686,2.2696,2.2774,2.2793,2.275,2.2888,2.2847,2.2857,2.2873,2.2886,2.2896,2.289,2.2713,0,0,0,0,0,2.2462,2.2509,2.2537,2.2607,2.2624,2.2638,2.2666,2.2665,2.27,2.2714,2.2737,2.2772,2.2822,2.2855,2.2903,2.2993,2.3003,2.3034,2.3045,2.3053,2.3062,2.3113,2.3128,2.2971,2.297,2.297,0,0,2.25,2.2524,2.2554,2.2616,2.264,2.2692,2.265,2.2705,2.2744,2.2723,2.2796,2.2814,2.2854,2.2939,2.2977,2.2957,2.3108,2.3062,2.3069,2.3073,2.3122,2.3137,2.315,2.2975,2.2974,2.2974,0,0,2.2596,2.2618,2.2679,2.2705,2.2744,2.2753,2.2768,2.2803,2.2814,2.2887,2.2873,2.292,2.3006,2.3035,2.3061,2.3171,2.3158,2.3186,2.3241,2.3291,2.3303,2.3314,2.3354,2.3368,2.3195,2.3195,2.3195,0,2.2639,2.2713,2.2713,2.277,2.2798,2.278,2.2843,2.2869,2.2922,2.2943,2.2919,2.3027,2.3053,2.3144,2.3171,2.3193,2.3211,2.3181,2.3301,2.3312,2.3322,2.3361,2.3375,2.3199,2.3198,2.3198,2.3198,0,2.2765,2.2817,2.2862,2.2912,2.2945,2.3005,2.3016,2.3051,2.3047,2.306,2.3136,2.3167,2.322,2.3242,2.324,2.3334,2.3321,2.3299,2.3258,2.3341,2.3377,2.3391,2.3203,2.3202,2.3201,2.32,0,0,2.2886,2.2936,2.2952,2.2975,2.3017,2.3059,2.3119,2.317,2.32,2.3238,2.329,2.3363,2.3344,2.3374,2.3375,2.3419,2.3505,2.3392,2.3393,2.3413,2.3613,2.3629,2.3645,2.3497,2.35,2.3502,2.3609,0,2.2985,2.3089,2.3091,2.3187,2.3236,2.3221,2.3274,2.3307,2.3321,2.3367,2.3383,2.3435,2.3405,2.3423,2.3466,2.3485,2.3545,2.3478,2.3547,2.3549,2.3537,2.3664,2.3681,2.3781,2.3623,2.3626,2.3627,0,2.3114,2.3155,2.3255,2.3291,2.3312,2.3359,2.3407,2.345,2.3488,2.3496,2.353,2.3525,2.3589,2.3546,2.3635,2.3589,2.3618,2.3632,2.3636,2.3643,2.3593,2.3674,2.3812,2.3828,2.3649,2.3648,2.3646,0,2.3193,2.3273,2.3344,2.3364,2.3408,2.3442,2.3462,2.3497,2.3528,2.3571,2.3592,2.3642,2.367,2.3711,2.3721,2.3688,2.3811,2.3767,2.382,2.382,2.3846,2.3845,2.3991,2.3865,2.3864,2.3864,2.3864,0,2.3304,2.3366,2.338,2.3424,2.3494,2.3497,2.3567,2.3586,2.3617,2.3666,2.3657,2.3703,2.3713,2.3762,2.377,2.3844,2.3857,2.3866,2.3867,2.3867,2.3866,2.3885,2.3879,2.3868,2.3867,2.3866,2.3866,0,2.3403,2.3415,2.3491,2.3527,2.3537,2.3588,2.3619,2.3662,2.3675,2.3737,2.3752,2.3774,2.3831,2.3845,2.3914,2.3919,2.4007,2.4002,2.3993,2.3993,2.4045,2.404,2.421,2.4233,2.4091,2.4092,2.4093,0,2.3473,2.352,2.3561,2.3592,2.3613,2.3663,2.3695,2.3702,2.3736,2.3784,2.3821,2.3877,2.3922,2.4015,2.4038,2.4091,2.4088,2.4144,2.4096,2.4094,2.4089,2.4086,2.4092,2.4153,2.4154,2.4155,2.4156,0,2.3595,2.3599,2.3644,2.3692,2.373,2.3769,2.3806,2.3833,2.3845,2.3884,2.3941,2.3976,2.4047,2.4103,2.4157,2.418,2.4171,2.4171,2.4186,2.4186,2.418,2.4185,2.4019,2.4167,2.4166,2.4165,2.4165,2.4164,2.3682,2.3724,2.3759,2.3811,2.3839,2.3874,2.3917,2.3936,2.3983,2.404,2.4042,2.4105,2.4144,2.4215,2.4241,2.4293,2.4276,2.4297,2.4303,2.4308,2.4313,2.4171,2.4303,2.4302,2.4302,2.4302,2.4302,0,2.3804,2.3826,2.3873,2.3925,2.3967,2.3953,2.3994,2.403,2.4086,2.4122,2.4167,2.4234,2.4289,2.4318,2.4373,2.4409,2.4406,2.4423,2.4421,2.4427,2.4325,2.4306,2.4424,2.4424,2.4424,2.4424,2.4424,2.4424,2.3872,2.3943,2.3951,2.4037,2.406,2.412,2.4145,2.4179,2.4208,2.4283,2.4328,2.4346,2.438,2.4438,2.4489,2.4496,2.4517,2.4536,2.4542,2.4446,2.4433,2.4422,2.4404,2.4541,2.4541,2.4639,2.464,2.4641]},{"header":{"parameterUnit":"m.s-1","parameterCategory":1,"la1":30.2991,"la2":30.254,"lo1":-89.0895,"lo2":-89.0444,"dy":0.0017,"dx":0.0017,"nx":28,"ny":28,"refTime":"2024-11-25T09:00:00:Z","depth":0,"parameterNumber":3,"parameterNumberName":"V-component_of_WINDS"},"data":[0,0,0,0,0,0,0,0,0,0,0,0,0,0,0,0,0,0,0,0,0,0,0,0,0,0,0,0,0,0,0,0,0,0,0,0,0,0,0,0,0,0,0,0,0,0,0,0,0,0,0,0,0,0,0,0,0,0,3.358,3.3581,0,3.3658,3.3659,3.366,3.3637,3.3635,3.3633,3.3632,3.371,3.3714,3.3718,0,0,0,0,0,0,0,0,0,0,0,0,0,3.3411,3.3414,3.358,3.3581,3.3582,3.3658,3.3659,3.366,3.3637,3.3635,3.3633,3.3631,3.3709,3.3714,3.3718,0,0,0,0,0,0,0,0,0,0,0,0,0,3.3486,3.3415,3.358,3.3579,3.358,3.3657,3.3659,3.366,3.3637,3.3635,3.3632,3.363,3.3708,3.3713,3.3718,3.38,0,0,3.3735,3.3737,0,0,0,0,0,0,0,0,3.3482,3.3492,3.3579,3.358,3.3581,3.3635,3.3628,3.3707,3.3638,3.3616,3.3632,3.3629,3.3687,3.3694,3.3714,3.3804,3.3807,3.3735,3.3739,3.3741,3.3743,0,0,0,0,0,0,0,3.3477,3.3489,3.3611,3.358,3.3581,3.3575,3.3583,3.3643,3.3664,3.3617,3.3616,3.3625,3.3687,3.3709,3.3716,3.3808,3.3735,3.374,3.3743,3.3745,3.397,3.3973,0,0,0,0,0,0,3.3471,3.3485,3.3608,3.3613,3.3524,3.358,3.3589,3.362,3.3663,3.3668,3.3627,3.3624,3.3701,3.3709,3.3718,3.3818,3.3741,3.3746,3.3749,3.3967,3.3971,3.3974,0,0,0,0,0,0,3.3467,3.3482,3.3605,3.3548,3.3564,3.3586,3.362,3.3623,3.3644,3.3671,3.3674,3.3646,3.3699,3.3711,3.378,3.382,3.3748,3.3753,3.3964,3.3969,3.3972,3.4017,0,0,0,0,0,0,3.3462,3.3481,3.3512,3.3549,3.3567,3.3666,3.3623,3.3626,3.3654,3.365,3.3689,3.3693,3.3698,3.3772,3.3786,3.3826,3.3758,3.3961,3.3966,3.3971,3.4012,3.4022,3.4031,0,0,0,0,0,3.3456,3.3521,3.3514,3.3529,3.3606,3.3668,3.3678,3.3683,3.3657,3.3689,3.3706,3.3692,3.3814,3.378,3.3795,3.3837,3.3958,3.3965,3.3971,3.4008,3.402,3.403,0,0,0,0,0,0,3.3488,3.3526,3.3518,3.3597,3.363,3.3664,3.3704,3.3696,3.3736,3.3731,3.3735,3.3744,3.3816,3.3833,3.3795,3.3919,3.3882,3.3891,3.3905,3.3917,3.3926,3.3921,3.3762,0,0,0,0,0,3.3504,3.3551,3.3582,3.3648,3.3665,3.3682,3.3709,3.371,3.3744,3.3758,3.378,3.3813,3.3859,3.3889,3.3932,3.4014,3.4023,3.4051,3.406,3.4068,3.4076,3.4122,3.4135,3.3994,3.3994,3.3994,0,0,3.3537,3.3564,3.3594,3.3655,3.3681,3.373,3.3694,3.3747,3.3783,3.3765,3.3833,3.3851,3.3888,3.3964,3.3999,3.3981,3.4117,3.4076,3.4081,3.4086,3.4129,3.4143,3.4155,3.3998,3.3997,3.3997,0,0,3.3624,3.3649,3.3707,3.3734,3.3773,3.3784,3.3798,3.3834,3.3845,3.3913,3.3901,3.3944,3.4023,3.405,3.4074,3.4172,3.4161,3.4186,3.4235,3.428,3.4291,3.4301,3.4336,3.4349,3.4194,3.4194,3.4194,0,3.3661,3.3734,3.3738,3.3793,3.3821,3.3807,3.3867,3.3892,3.3944,3.3963,3.3942,3.4041,3.4065,3.4149,3.4173,3.4192,3.4209,3.4182,3.4289,3.4299,3.4308,3.4342,3.4356,3.4197,3.4197,3.4197,3.4196,0,3.3778,3.3829,3.3872,3.3922,3.3955,3.4011,3.4024,3.4057,3.4055,3.4068,3.4138,3.4166,3.4216,3.4236,3.4234,3.4319,3.4307,3.4287,3.425,3.4324,3.4357,3.437,3.4201,3.42,3.4199,3.4199,0,0,3.3886,3.3939,3.3955,3.3978,3.4021,3.406,3.4116,3.4166,3.4194,3.4229,3.4277,3.4344,3.4327,3.4354,3.4356,3.4395,3.4472,3.4371,3.4372,3.4389,3.4568,3.4583,3.4598,3.4464,3.4467,3.4469,3.4565,0,3.3977,3.4076,3.4082,3.4173,3.422,3.4209,3.4258,3.429,3.4304,3.4346,3.4361,3.4409,3.4382,3.4399,3.4437,3.4454,3.4508,3.4447,3.4509,3.4511,3.4501,3.4614,3.463,3.472,3.4577,3.458,3.4581,0,3.4096,3.4137,3.4232,3.4269,3.4289,3.4333,3.4379,3.442,3.4455,3.4463,3.4494,3.449,3.4548,3.4509,3.4589,3.4548,3.4573,3.4585,3.4589,3.4596,3.4551,3.4625,3.4748,3.4762,3.4601,3.4599,3.4598,0,3.4167,3.4245,3.4312,3.4332,3.4377,3.4408,3.4428,3.4461,3.4491,3.4531,3.455,3.4596,3.4621,3.4657,3.4666,3.4636,3.4746,3.4707,3.4754,3.4754,3.4778,3.4777,3.4909,3.4793,3.4793,3.4793,3.4793,0,3.4268,3.4327,3.4345,3.4386,3.4452,3.4459,3.4524,3.4541,3.4571,3.4616,3.4608,3.4651,3.4659,3.4703,3.471,3.4776,3.4787,3.4795,3.4797,3.4797,3.4796,3.4814,3.4808,3.4797,3.4796,3.4795,3.4794,0,3.4358,3.4372,3.4445,3.4482,3.4492,3.4539,3.457,3.4611,3.4624,3.4681,3.4694,3.4715,3.4767,3.4779,3.484,3.4845,3.4923,3.4918,3.4911,3.4911,3.4958,3.4954,3.5107,3.5127,3.4998,3.4999,3.5,0,3.4422,3.4467,3.4509,3.4539,3.4561,3.4608,3.4639,3.4647,3.4678,3.4723,3.4758,3.4809,3.485,3.4933,3.4953,3.5,3.4996,3.5047,3.5003,3.5002,3.4998,3.4996,3.5001,3.5055,3.5056,3.5058,3.5058,0,3.4535,3.454,3.4584,3.4631,3.4668,3.4705,3.4741,3.4766,3.4778,3.4814,3.4868,3.49,3.4963,3.5013,3.5061,3.5081,3.5072,3.5072,3.5086,3.5086,3.5081,3.5086,3.4935,3.5069,3.5068,3.5067,3.5066,3.5066,3.4614,3.4654,3.469,3.474,3.4768,3.4802,3.4842,3.486,3.4905,3.4957,3.4959,3.5017,3.5052,3.5115,3.5138,3.5183,3.5168,3.5187,3.5192,3.5197,3.5202,3.5073,3.5192,3.5191,3.5191,3.5191,3.5191,0,3.4727,3.475,3.4796,3.4846,3.4886,3.4875,3.4914,3.4947,3.4999,3.5032,3.5074,3.5135,3.5184,3.5209,3.5258,3.5289,3.5287,3.5302,3.53,3.5305,3.5212,3.5196,3.5304,3.5303,3.5303,3.5303,3.5303,3.5303,3.4791,3.4858,3.4868,3.495,3.4972,3.5029,3.5053,3.5084,3.5111,3.518,3.5222,3.5237,3.5268,3.5319,3.5364,3.537,3.5388,3.5406,3.541,3.5323,3.5312,3.5301,3.5286,3.541,3.541,3.5499,3.55,3.5501]}]]